TimeCDT,TemperatureF,Dew PointF,Humidity,Sea Level PressureIn,VisibilityMPH,Wind Direction,Wind SpeedMPH,Gust SpeedMPH,PrecipitationIn,Events,Conditions,WindDirDegrees,DateUTC
12:58 AM,48.0,46.9,96,29.90,10.0,Calm,Calm,-,N/A,,Clear,0,2012-10-19 05:58:00
1:58 AM,46.9,46.0,97,29.90,10.0,South,3.5,-,N/A,,Clear,180,2012-10-19 06:58:00
2:58 AM,46.0,45.0,96,29.89,10.0,South,4.6,-,N/A,,Clear,180,2012-10-19 07:58:00
3:58 AM,46.0,45.0,96,29.88,10.0,Calm,Calm,-,N/A,,Clear,0,2012-10-19 08:58:00
4:58 AM,44.1,43.0,96,29.88,10.0,Calm,Calm,-,N/A,,Clear,0,2012-10-19 09:58:00
5:58 AM,44.1,43.0,96,29.89,10.0,South,3.5,-,N/A,,Clear,190,2012-10-19 10:58:00
6:58 AM,43.0,42.1,97,29.89,10.0,South,3.5,-,N/A,,Clear,190,2012-10-19 11:58:00
7:23 AM,42.8,42.8,100,29.89,10.0,Calm,Calm,-,N/A,,Clear,0,2012-10-19 12:23:00
7:32 AM,42.8,42.8,100,29.89,10.0,South,3.5,-,N/A,,Clear,190,2012-10-19 12:32:00
7:58 AM,46.0,44.1,93,29.89,10.0,South,3.5,-,N/A,,Clear,190,2012-10-19 12:58:00
8:58 AM,55.0,48.0,77,29.90,10.0,South,3.5,-,N/A,,Clear,190,2012-10-19 13:58:00
9:58 AM,64.9,43.0,45,29.89,10.0,SW,8.1,-,N/A,,Clear,230,2012-10-19 14:58:00
10:58 AM,69.1,37.9,32,29.89,10.0,WSW,13.8,23.0,N/A,,Clear,250,2012-10-19 15:58:00
11:58 AM,71.1,36.0,28,29.88,10.0,WSW,13.8,28.8,N/A,,Clear,250,2012-10-19 16:58:00
12:58 PM,73.0,37.0,27,29.86,10.0,West,11.5,18.4,N/A,,Clear,270,2012-10-19 17:58:00
1:58 PM,73.0,32.0,22,29.83,10.0,West,15.0,23.0,N/A,,Clear,280,2012-10-19 18:58:00
2:58 PM,72.0,30.9,22,29.82,10.0,West,15.0,25.3,N/A,,Clear,260,2012-10-19 19:58:00
3:58 PM,72.0,35.1,26,29.82,9.0,West,11.5,-,N/A,,Clear,260,2012-10-19 20:58:00
4:58 PM,70.0,37.0,30,29.82,9.0,WSW,6.9,-,N/A,,Clear,240,2012-10-19 21:58:00
5:58 PM,66.0,39.9,38,29.83,10.0,WSW,4.6,-,N/A,,Clear,250,2012-10-19 22:58:00
6:58 PM,57.0,51.1,81,29.85,10.0,SW,4.6,-,N/A,,Clear,230,2012-10-19 23:58:00
7:58 PM,53.1,48.9,86,29.86,10.0,SSW,3.5,-,N/A,,Clear,200,2012-10-20 00:58:00
8:58 PM,52.0,48.0,86,29.88,10.0,Calm,Calm,-,N/A,,Clear,0,2012-10-20 01:58:00
9:58 PM,50.0,48.0,93,29.89,10.0,SW,3.5,-,N/A,,Clear,220,2012-10-20 02:58:00
10:58 PM,48.9,46.9,93,29.90,10.0,South,4.6,-,N/A,,Clear,190,2012-10-20 03:58:00
11:58 PM,48.0,46.9,96,29.91,10.0,Calm,Calm,-,N/A,,Clear,0,2012-10-20 04:58:00